Skip Page Navigation
NASA JPL Caltech
NASA Logo - Jet Propulsion Laboratory + View the NASA Portal
+ Center for Near-Earth Object Studies
JPL Home Earth Solar System Stars & Galaxies Technology
JPL Solar System Dynamics
BODIES ORBITS EPHEMERIDES TOOLS PHYSICAL DATA DISCOVERY FAQ SITE MAP
JPL Small-Body Database Browser
Search: [ help ]  
52085 (2002 RC102)
Classification: Main-belt Asteroid          SPK-ID: 2052085
Ephemeris | Orbit Diagram | Orbital Elements | Mission Design | Physical Parameters | Discovery Circumstances ]

[ show orbit diagram ]
Orbital Elements at Epoch 2459396.5 (2021-Jul-01.0) TDB
Reference: JPL 31 (heliocentric ecliptic J2000)
 Element Value Uncertainty (1-sigma)   Units 
e .2455963277914125 3.6389e-08  
a 2.580048854428152 1.1141e-08 au
q 1.946398330258157 9.6612e-08 au
i 3.741361949835563 3.3239e-06 deg
node 45.71055347868151 6.1321e-05 deg
peri 310.4296699494788 6.1785e-05 deg
M 207.7560531528542 1.1529e-05 deg
tp 2460036.644258766190
(2023-Apr-02.14425877)
5.1885e-05 TDB
period 1513.701778811634
4.14
9.8043e-06
2.684e-08
d
yr
n .2378275595888024 1.5404e-09 deg/d
Q 3.213699378598147 1.3877e-08 au
  Orbit Determination Parameters
   # obs. used (total)      1189  
   data-arc span      8231 days (22.54 yr)  
   first obs. used      1998-11-24  
   last obs. used      2021-06-07  
   planetary ephem.      DE441  
   SB-pert. ephem.      SB441-N16  
   condition code      0  
   norm. resid. RMS      .52014  
   source      ORB  
   producer      Otto Matic  
   solution date      2021-Jul-08 21:52:28  

Additional Information
 Earth MOID = .943966 au 
 Jupiter MOID = 2.23826 au 
 T_jup = 3.379 
[ show covariance matrix ]

Ephemeris | Orbit Diagram | Orbital Elements | Mission Design | Physical Parameters | Discovery Circumstances ]

Physical Parameter Table
Parameter Symbol Value Units Sigma Reference Notes
absolute magnitude H 15.04   n/a MPCxxxxx  
diameter diameter 2.500 km 0.500 urn:nasa:pds:neowise_diameters_albedos::2.0[mainbelt] (http://adsabs.harvard.edu/abs/2011ApJ...741...68M)  
geometric albedo albedo 0.310   0.145 urn:nasa:pds:neowise_diameters_albedos::2.0[mainbelt] (http://adsabs.harvard.edu/abs/2011ApJ...741...68M)  

52085 (2002 RC102)          Discovered 2002-Sep-05 by LINEAR at Socorro
Reference: 20021120/Numbers.arcLast Updated: 2004-04-19
Ephemeris | Orbit Diagram | Orbital Elements | Mission Design | Physical Parameters | Discovery Circumstances ]
ABOUT SSD CREDITS/AWARDS PRIVACY/COPYRIGHT GLOSSARY LINKS
FirstGov 2021-Jul-23 18:47 UT
(server date/time)  
NASA Home Page
Site Manager:   Ryan S. Park
Webmaster  Alan B. Chamberlin